owner,sensor,date,latitude,longitude,vertical_datum,direction_of_sea_water_velocity,sea_water_speed,upward_sea_water_velocity,qcFlag 
TABS,ioos:station:wmo:42046:1,1999-07-01T00:00:00Z,27.8903,-94.0367,2.0,241.4883995,18.43583467,-99999.0,'11111222,11111222,99999999' 
TABS,ioos:station:wmo:42046:1,1999-07-01T00:30:00Z,27.8903,-94.0367,2.0,259.8749311,14.22146265,-99999.0,'11111222,11111222,99999999' 
TABS,ioos:station:wmo:42046:1,1999-07-01T01:00:00Z,27.8903,-94.0367,2.0,238.5228133,17.23629891,-99999.0,'11111222,11111222,99999999' 
TABS,ioos:station:wmo:42046:1,1999-07-01T01:30:00Z,27.8903,-94.0367,2.0,250.6151087,22.89803485,-99999.0,'11111222,11111222,99999999' 
TABS,ioos:station:wmo:42046:1,1999-07-01T02:00:00Z,27.8903,-94.0367,2.0,252.8968901,25.84279397,-99999.0,'11111222,11111222,99999999' 
TABS,ioos:station:wmo:42046:1,1999-07-01T02:30:00Z,27.8903,-94.0367,2.0,248.6763977,24.47549795,-99999.0,'11111222,11111222,99999999' 
TABS,ioos:station:wmo:42046:1,1999-07-01T03:00:00Z,27.8903,-94.0367,2.0,246.2822835,26.10478883,-99999.0,'11111222,11111222,99999999' 
TABS,ioos:station:wmo:42046:1,1999-07-01T03:30:00Z,27.8903,-94.0367,2.0,264.8822762,20.18043607,-99999.0,'11111222,11111222,99999999' 
TABS,ioos:station:wmo:42046:1,1999-07-01T04:00:00Z,27.8903,-94.0367,2.0,250.2590158,22.2049544,-99999.0,'11111222,11111222,99999999' 
TABS,ioos:station:wmo:42046:1,1999-07-01T04:30:00Z,27.8903,-94.0367,2.0,245.0856703,20.17771047,-99999.0,'11111222,11111222,99999999' 
TABS,ioos:station:wmo:42046:1,1999-07-01T05:00:00Z,27.8903,-94.0367,2.0,267.286176,21.12368339,-99999.0,'11111222,11111222,99999999' 
TABS,ioos:station:wmo:42046:1,1999-07-01T05:30:00Z,27.8903,-94.0367,2.0,260.8579602,17.62384748,-99999.0,'11111222,11111222,99999999' 
TABS,ioos:station:wmo:42046:1,1999-07-01T06:00:00Z,27.8903,-94.0367,2.0,286.8766461,18.60107524,-99999.0,'11111222,11111222,99999999' 
TABS,ioos:station:wmo:42046:1,1999-07-01T06:30:00Z,27.8903,-94.0367,2.0,282.6529478,15.06585544,-99999.0,'11111222,11111222,99999999' 
TABS,ioos:station:wmo:42046:1,1999-07-01T07:00:00Z,27.8903,-94.0367,2.0,262.0924349,10.90366911,-99999.0,'11111222,11111222,99999999' 
TABS,ioos:station:wmo:42046:1,1999-07-01T07:30:00Z,27.8903,-94.0367,2.0,317.7930115,17.41551033,-99999.0,'11111222,11111222,99999999' 
TABS,ioos:station:wmo:42046:1,1999-07-01T08:00:00Z,27.8903,-94.0367,2.0,321.6872094,10.32327467,-99999.0,'11111222,11111222,99999999' 
TABS,ioos:station:wmo:42046:1,1999-07-01T08:30:00Z,27.8903,-94.0367,2.0,327.0428627,10.84527547,-99999.0,'11111222,11111222,99999999' 
TABS,ioos:station:wmo:42046:1,1999-07-01T09:00:00Z,27.8903,-94.0367,2.0,313.7739907,23.12768903,-99999.0,'11111222,11111222,99999999' 
TABS,ioos:station:wmo:42046:1,1999-07-01T09:30:00Z,27.8903,-94.0367,2.0,329.0816055,21.79747692,-99999.0,'11111222,11111222,99999999' 
TABS,ioos:station:wmo:42046:1,1999-07-01T10:00:00Z,27.8903,-94.0367,2.0,332.8735174,22.80898946,-99999.0,'11111222,11111222,99999999' 
TABS,ioos:station:wmo:42046:1,1999-07-01T10:30:00Z,27.8903,-94.0367,2.0,3.277878746,22.7371942,-99999.0,'11111222,11111222,99999999' 
TABS,ioos:station:wmo:42046:1,1999-07-01T11:00:00Z,27.8903,-94.0367,2.0,0.676899217,25.40177159,-99999.0,'11111222,11111222,99999999' 
TABS,ioos:station:wmo:42046:1,1999-07-01T11:30:00Z,27.8903,-94.0367,2.0,7.995056494,35.9494089,-99999.0,'11111222,11111222,99999999' 
TABS,ioos:station:wmo:42046:1,1999-07-01T12:30:00Z,27.8903,-94.0367,2.0,36.55975969,44.32064981,-99999.0,'11111222,11111222,99999999' 
TABS,ioos:station:wmo:42046:1,1999-07-01T13:00:00Z,27.8903,-94.0367,2.0,28.18329026,39.59419149,-99999.0,'11111222,11111222,99999999' 
TABS,ioos:station:wmo:42046:1,1999-07-01T13:30:00Z,27.8903,-94.0367,2.0,26.25211167,40.92065493,-99999.0,'11111222,11111222,99999999' 
TABS,ioos:station:wmo:42046:1,1999-07-01T14:00:00Z,27.8903,-94.0367,2.0,44.30262748,40.6616527,-99999.0,'11111222,11111222,99999999' 
TABS,ioos:station:wmo:42046:1,1999-07-01T14:30:00Z,27.8903,-94.0367,2.0,44.81038524,42.70948372,-99999.0,'11111222,11111222,99999999' 
TABS,ioos:station:wmo:42046:1,1999-07-01T15:00:00Z,27.8903,-94.0367,2.0,55.9087878,39.60656511,-99999.0,'11111222,11111222,99999999' 
TABS,ioos:station:wmo:42046:1,1999-07-01T15:30:00Z,27.8903,-94.0367,2.0,60.42223048,34.03527582,-99999.0,'11111222,11111222,99999999' 
TABS,ioos:station:wmo:42046:1,1999-07-01T16:00:00Z,27.8903,-94.0367,2.0,54.46240531,38.7104637,-99999.0,'11111222,11111222,99999999' 
TABS,ioos:station:wmo:42046:1,1999-07-01T16:30:00Z,27.8903,-94.0367,2.0,60.92992393,35.81131106,-99999.0,'11111222,11111222,99999999' 
TABS,ioos:station:wmo:42046:1,1999-07-01T17:00:00Z,27.8903,-94.0367,2.0,55.54611458,27.04403816,-99999.0,'11111222,11111222,99999999' 
TABS,ioos:station:wmo:42046:1,1999-07-01T17:30:00Z,27.8903,-94.0367,2.0,58.7633371,32.39645042,-99999.0,'11111222,11111222,99999999' 
TABS,ioos:station:wmo:42046:1,1999-07-01T18:00:00Z,27.8903,-94.0367,2.0,56.97620967,31.00983715,-99999.0,'11111222,11111222,99999999' 
TABS,ioos:station:wmo:42046:1,1999-07-01T18:30:00Z,27.8903,-94.0367,2.0,59.36288663,27.08006647,-99999.0,'11111222,11111222,99999999' 
TABS,ioos:station:wmo:42046:1,1999-07-01T19:00:00Z,27.8903,-94.0367,2.0,71.15681869,26.62705391,-99999.0,'11111222,11111222,99999999' 
TABS,ioos:station:wmo:42046:1,1999-07-01T19:30:00Z,27.8903,-94.0367,2.0,87.15941591,26.23223208,-99999.0,'11111222,11111222,99999999' 
TABS,ioos:station:wmo:42046:1,1999-07-01T20:00:00Z,27.8903,-94.0367,2.0,66.80146373,15.99312352,-99999.0,'11111222,11111222,99999999' 
TABS,ioos:station:wmo:42046:1,1999-07-01T20:30:00Z,27.8903,-94.0367,2.0,54.70673494,10.90412766,-99999.0,'11111222,11111222,99999999' 
TABS,ioos:station:wmo:42046:1,1999-07-01T21:00:00Z,27.8903,-94.0367,2.0,42.61416678,10.19117265,-99999.0,'11111222,11111222,99999999' 
TABS,ioos:station:wmo:42046:1,1999-07-01T21:30:00Z,27.8903,-94.0367,2.0,43.36353201,4.951767361,-99999.0,'11133222,11111222,99999999' 
TABS,ioos:station:wmo:42046:1,1999-07-01T22:00:00Z,27.8903,-94.0367,2.0,69.14559073,4.494441011,-99999.0,'11133222,11111222,99999999' 
TABS,ioos:station:wmo:42046:1,1999-07-01T22:30:00Z,27.8903,-94.0367,2.0,132.8788033,1.910497317,-99999.0,'11133222,11111222,99999999' 
TABS,ioos:station:wmo:42046:1,1999-07-01T23:00:00Z,27.8903,-94.0367,2.0,329.931698,8.78179936,-99999.0,'11133222,11111222,99999999' 
TABS,ioos:station:wmo:42046:1,1999-07-01T23:30:00Z,27.8903,-94.0367,2.0,310.8557016,4.891829923,-99999.0,'11133222,11111222,99999999' 
TABS,ioos:station:wmo:42046:1,1999-07-02T00:00:00Z,27.8903,-94.0367,2.0,298.740149,3.535533906,-99999.0,'11133222,11111222,99999999' 
TABS,ioos:station:wmo:42046:1,1999-07-02T00:30:00Z,27.8903,-94.0367,2.0,203.8862336,7.655716818,-99999.0,'11133222,11111222,99999999' 
TABS,ioos:station:wmo:42046:1,1999-07-02T01:00:00Z,27.8903,-94.0367,2.0,338.325612,8.393449827,-99999.0,'11133222,11111222,99999999' 
TABS,ioos:station:wmo:42046:1,1999-07-02T01:30:00Z,27.8903,-94.0367,2.0,278.5695428,7.38241153,-99999.0,'11133222,11111222,99999999' 
TABS,ioos:station:wmo:42046:1,1999-07-02T02:00:00Z,27.8903,-94.0367,2.0,332.3542997,16.59457743,-99999.0,'11111222,11111222,99999999' 
TABS,ioos:station:wmo:42046:1,1999-07-02T02:30:00Z,27.8903,-94.0367,2.0,299.0549571,15.44344521,-99999.0,'11111222,11111222,99999999' 
TABS,ioos:station:wmo:42046:1,1999-07-02T03:00:00Z,27.8903,-94.0367,2.0,312.3275209,28.81058833,-99999.0,'11111222,11111222,99999999' 
TABS,ioos:station:wmo:42046:1,1999-07-02T03:30:00Z,27.8903,-94.0367,2.0,318.1927808,35.55193384,-99999.0,'11111222,11111222,99999999' 
TABS,ioos:station:wmo:42046:1,1999-07-02T04:00:00Z,27.8903,-94.0367,2.0,330.7609354,42.17345136,-99999.0,'11111222,11111222,99999999' 
TABS,ioos:station:wmo:42046:1,1999-07-02T04:30:00Z,27.8903,-94.0367,2.0,328.899876,50.3349779,-99999.0,'11111222,11111222,99999999' 
TABS,ioos:station:wmo:42046:1,1999-07-02T05:00:00Z,27.8903,-94.0367,2.0,338.5872911,43.82510696,-99999.0,'11111222,11111222,99999999' 
TABS,ioos:station:wmo:42046:1,1999-07-02T05:30:00Z,27.8903,-94.0367,2.0,338.9253005,43.93904869,-99999.0,'11111222,11111222,99999999' 
TABS,ioos:station:wmo:42046:1,1999-07-02T06:00:00Z,27.8903,-94.0367,2.0,335.0822462,42.01071292,-99999.0,'11111222,11111222,99999999' 
TABS,ioos:station:wmo:42046:1,1999-07-02T06:30:00Z,27.8903,-94.0367,2.0,340.9310615,42.85148772,-99999.0,'11111222,11111222,99999999' 
TABS,ioos:station:wmo:42046:1,1999-07-02T07:00:00Z,27.8903,-94.0367,2.0,334.548187,43.74574265,-99999.0,'11111222,11111222,99999999' 
TABS,ioos:station:wmo:42046:1,1999-07-02T07:30:00Z,27.8903,-94.0367,2.0,340.5164171,36.27740344,-99999.0,'11111222,11111222,99999999' 
TABS,ioos:station:wmo:42046:1,1999-07-02T08:00:00Z,27.8903,-94.0367,2.0,351.0548495,32.79893291,-99999.0,'11111222,11111222,99999999' 
TABS,ioos:station:wmo:42046:1,1999-07-02T08:30:00Z,27.8903,-94.0367,2.0,347.4000801,43.54882318,-99999.0,'11111222,11111222,99999999' 
TABS,ioos:station:wmo:42046:1,1999-07-02T09:00:00Z,27.8903,-94.0367,2.0,346.317454,39.31577292,-99999.0,'11111222,11111222,99999999' 
TABS,ioos:station:wmo:42046:1,1999-07-02T09:30:00Z,27.8903,-94.0367,2.0,352.036442,38.97588998,-99999.0,'11111222,11111222,99999999' 
TABS,ioos:station:wmo:42046:1,1999-07-02T10:00:00Z,27.8903,-94.0367,2.0,355.3295671,30.70195434,-99999.0,'11111222,11111222,99999999' 
TABS,ioos:station:wmo:42046:1,1999-07-02T10:30:00Z,27.8903,-94.0367,2.0,0.608099007,37.70212196,-99999.0,'11111222,11111222,99999999' 
TABS,ioos:station:wmo:42046:1,1999-07-02T11:00:00Z,27.8903,-94.0367,2.0,6.200604297,40.73831121,-99999.0,'11111222,11111222,99999999' 
TABS,ioos:station:wmo:42046:1,1999-07-02T11:30:00Z,27.8903,-94.0367,2.0,11.9162864,53.7584412,-99999.0,'11111222,11111222,99999999' 
TABS,ioos:station:wmo:42046:1,1999-07-02T12:00:00Z,27.8903,-94.0367,2.0,23.47412656,46.44362174,-99999.0,'11111222,11111222,99999999' 
TABS,ioos:station:wmo:42046:1,1999-07-02T12:30:00Z,27.8903,-94.0367,2.0,24.36043432,45.33629892,-99999.0,'11111222,11111222,99999999' 
TABS,ioos:station:wmo:42046:1,1999-07-02T13:00:00Z,27.8903,-94.0367,2.0,18.79246484,45.63255417,-99999.0,'11111222,11111222,99999999' 
TABS,ioos:station:wmo:42046:1,1999-07-02T13:30:00Z,27.8903,-94.0367,2.0,28.74329761,48.24448155,-99999.0,'11111222,11111222,99999999' 
TABS,ioos:station:wmo:42046:1,1999-07-02T14:00:00Z,27.8903,-94.0367,2.0,32.72701413,41.24778782,-99999.0,'11111222,11111222,99999999' 
TABS,ioos:station:wmo:42046:1,1999-07-02T14:30:00Z,27.8903,-94.0367,2.0,29.35789535,45.89389938,-99999.0,'11111222,11111222,99999999' 
TABS,ioos:station:wmo:42046:1,1999-07-02T16:00:00Z,27.8903,-94.0367,2.0,44.89179601,37.40601556,-99999.0,'11111222,11111222,99999999' 
TABS,ioos:station:wmo:42046:1,1999-07-02T16:30:00Z,27.8903,-94.0367,2.0,50.23480012,36.42650134,-99999.0,'11111222,11111222,99999999' 
TABS,ioos:station:wmo:42046:1,1999-07-02T17:00:00Z,27.8903,-94.0367,2.0,73.44296734,23.16031088,-99999.0,'11111222,11111222,99999999' 
TABS,ioos:station:wmo:42046:1,1999-07-02T17:30:00Z,27.8903,-94.0367,2.0,62.47817889,21.42451866,-99999.0,'11111222,11111222,99999999' 
TABS,ioos:station:wmo:42046:1,1999-07-02T18:00:00Z,27.8903,-94.0367,2.0,67.8806889,16.73140759,-99999.0,'11111222,11111222,99999999' 
TABS,ioos:station:wmo:42046:1,1999-07-02T18:30:00Z,27.8903,-94.0367,2.0,85.44006058,16.35175832,-99999.0,'11111222,11111222,99999999' 
TABS,ioos:station:wmo:42046:1,1999-07-02T19:00:00Z,27.8903,-94.0367,2.0,71.86196026,24.41311123,-99999.0,'11111222,11111222,99999999' 
TABS,ioos:station:wmo:42046:1,1999-07-02T19:30:00Z,27.8903,-94.0367,2.0,61.3764901,34.86043603,-99999.0,'11111222,11111222,99999999' 
TABS,ioos:station:wmo:42046:1,1999-07-02T20:00:00Z,27.8903,-94.0367,2.0,63.33140229,24.73095227,-99999.0,'11111222,11111222,99999999' 
TABS,ioos:station:wmo:42046:1,1999-07-02T20:30:00Z,27.8903,-94.0367,2.0,76.34648359,25.41830049,-99999.0,'11111222,11111222,99999999' 
TABS,ioos:station:wmo:42046:1,1999-07-02T21:00:00Z,27.8903,-94.0367,2.0,61.9052238,30.15294347,-99999.0,'11111222,11111222,99999999' 
TABS,ioos:station:wmo:42046:1,1999-07-02T21:30:00Z,27.8903,-94.0367,2.0,75.24388196,23.16398066,-99999.0,'11111222,11111222,99999999' 
TABS,ioos:station:wmo:42046:1,1999-07-02T22:00:00Z,27.8903,-94.0367,2.0,106.2163292,26.14000765,-99999.0,'11111222,11111222,99999999' 
TABS,ioos:station:wmo:42046:1,1999-07-02T22:30:00Z,27.8903,-94.0367,2.0,96.89443495,30.82288111,-99999.0,'11111222,11111222,99999999' 
TABS,ioos:station:wmo:42046:1,1999-07-02T23:00:00Z,27.8903,-94.0367,2.0,92.4895471,27.62607464,-99999.0,'11111222,11111222,99999999' 
TABS,ioos:station:wmo:42046:1,1999-07-02T23:30:00Z,27.8903,-94.0367,2.0,125.8730098,21.84330561,-99999.0,'11111222,11111222,99999999' 
TABS,ioos:station:wmo:42046:1,1999-07-03T00:00:00Z,27.8903,-94.0367,2.0,108.7030581,20.2704218,-99999.0,'11111222,11111222,99999999' 
TABS,ioos:station:wmo:42046:1,1999-07-03T00:30:00Z,27.8903,-94.0367,2.0,158.8863388,10.82681855,-99999.0,'11111222,11111222,99999999' 
TABS,ioos:station:wmo:42046:1,1999-07-03T01:00:00Z,27.8903,-94.0367,2.0,164.7644161,25.49607813,-99999.0,'11111222,11111222,99999999' 
TABS,ioos:station:wmo:42046:1,1999-07-03T01:30:00Z,27.8903,-94.0367,2.0,150.5461857,9.761659695,-99999.0,'11133222,11111222,99999999' 
TABS,ioos:station:wmo:42046:1,1999-07-03T02:00:00Z,27.8903,-94.0367,2.0,179.6178242,15.00033333,-99999.0,'11111222,11111222,99999999' 
TABS,ioos:station:wmo:42046:1,1999-07-03T02:30:00Z,27.8903,-94.0367,2.0,176.1857236,10.52330746,-99999.0,'11111222,11111222,99999999' 
TABS,ioos:station:wmo:42046:1,1999-07-03T03:00:00Z,27.8903,-94.0367,2.0,175.30112,14.64923206,-99999.0,'11111222,11111222,99999999' 
TABS,ioos:station:wmo:42046:1,1999-07-03T03:30:00Z,27.8903,-94.0367,2.0,228.3174577,9.774456507,-99999.0,'11133222,11111222,99999999' 
TABS,ioos:station:wmo:42046:1,1999-07-03T04:00:00Z,27.8903,-94.0367,2.0,211.1386892,5.608029957,-99999.0,'11133222,11111222,99999999' 
TABS,ioos:station:wmo:42046:1,1999-07-03T04:30:00Z,27.8903,-94.0367,2.0,298.9800608,7.430343195,-99999.0,'11133222,11111222,99999999' 
TABS,ioos:station:wmo:42046:1,1999-07-03T05:00:00Z,27.8903,-94.0367,2.0,345.3793707,14.26183719,-99999.0,'11111222,11111222,99999999' 
TABS,ioos:station:wmo:42046:1,1999-07-03T05:30:00Z,27.8903,-94.0367,2.0,308.4599452,22.34860175,-99999.0,'11111222,11111222,99999999' 
TABS,ioos:station:wmo:42046:1,1999-07-03T06:00:00Z,27.8903,-94.0367,2.0,319.8993967,29.80738164,-99999.0,'11111222,11111222,99999999' 
TABS,ioos:station:wmo:42046:1,1999-07-03T06:30:00Z,27.8903,-94.0367,2.0,354.0061315,20.10994779,-99999.0,'11111222,11111222,99999999' 
TABS,ioos:station:wmo:42046:1,1999-07-03T07:00:00Z,27.8903,-94.0367,2.0,10.20841295,26.51980392,-99999.0,'11111222,11111222,99999999' 
TABS,ioos:station:wmo:42046:1,1999-07-03T07:30:00Z,27.8903,-94.0367,2.0,18.43511617,20.87103256,-99999.0,'11111222,11111222,99999999' 
TABS,ioos:station:wmo:42046:1,1999-07-03T08:00:00Z,27.8903,-94.0367,2.0,17.97553529,23.65459786,-99999.0,'11111222,11111222,99999999' 
TABS,ioos:station:wmo:42046:1,1999-07-03T08:30:00Z,27.8903,-94.0367,2.0,6.749369466,34.03586344,-99999.0,'11111222,11111222,99999999' 
TABS,ioos:station:wmo:42046:1,1999-07-03T09:00:00Z,27.8903,-94.0367,2.0,11.72300716,46.26499757,-99999.0,'11111222,11111222,99999999' 
TABS,ioos:station:wmo:42046:1,1999-07-03T09:30:00Z,27.8903,-94.0367,2.0,16.18937886,58.10404461,-99999.0,'11111222,11111222,99999999' 
TABS,ioos:station:wmo:42046:1,1999-07-03T10:00:00Z,27.8903,-94.0367,2.0,16.65027702,67.00955156,-99999.0,'11111222,11111222,99999999' 
TABS,ioos:station:wmo:42046:1,1999-07-03T10:30:00Z,27.8903,-94.0367,2.0,9.139038208,46.59141552,-99999.0,'11111222,11111222,99999999' 
TABS,ioos:station:wmo:42046:1,1999-07-03T11:00:00Z,27.8903,-94.0367,2.0,12.55112784,56.14160667,-99999.0,'11111222,11111222,99999999' 
TABS,ioos:station:wmo:42046:1,1999-07-03T11:30:00Z,27.8903,-94.0367,2.0,26.32198113,73.74618634,-99999.0,'11111222,11111222,99999999' 
TABS,ioos:station:wmo:42046:1,1999-07-03T12:00:00Z,27.8903,-94.0367,2.0,16.80344757,63.30284354,-99999.0,'11111222,11111222,99999999' 
TABS,ioos:station:wmo:42046:1,1999-07-03T12:30:00Z,27.8903,-94.0367,2.0,26.64363293,65.33796752,-99999.0,'11111222,11111222,99999999' 
TABS,ioos:station:wmo:42046:1,1999-07-03T13:00:00Z,27.8903,-94.0367,2.0,26.7735464,61.49227594,-99999.0,'11111222,11111222,99999999' 
TABS,ioos:station:wmo:42046:1,1999-07-03T13:30:00Z,27.8903,-94.0367,2.0,26.60449693,65.20375756,-99999.0,'11111222,11111222,99999999' 
TABS,ioos:station:wmo:42046:1,1999-07-03T14:00:00Z,27.8903,-94.0367,2.0,37.6515866,67.44627492,-99999.0,'11111222,11111222,99999999' 
TABS,ioos:station:wmo:42046:1,1999-07-03T14:30:00Z,27.8903,-94.0367,2.0,35.90731313,63.08890552,-99999.0,'11111222,11111222,99999999' 
TABS,ioos:station:wmo:42046:1,1999-07-03T15:00:00Z,27.8903,-94.0367,2.0,38.12530328,60.25446042,-99999.0,'11111222,11111222,99999999' 
TABS,ioos:station:wmo:42046:1,1999-07-03T15:30:00Z,27.8903,-94.0367,2.0,43.27435964,49.30770731,-99999.0,'11111222,11111222,99999999' 
TABS,ioos:station:wmo:42046:1,1999-07-03T16:00:00Z,27.8903,-94.0367,2.0,58.00716348,48.69630376,-99999.0,'11111222,11111222,99999999' 
TABS,ioos:station:wmo:42046:1,1999-07-03T16:30:00Z,27.8903,-94.0367,2.0,54.35042699,53.53213988,-99999.0,'11111222,11111222,99999999' 
TABS,ioos:station:wmo:42046:1,1999-07-03T17:00:00Z,27.8903,-94.0367,2.0,55.92288441,36.94387635,-99999.0,'11111222,11111222,99999999' 
TABS,ioos:station:wmo:42046:1,1999-07-03T17:30:00Z,27.8903,-94.0367,2.0,37.76028476,21.88264152,-99999.0,'11111222,11111222,99999999' 
TABS,ioos:station:wmo:42046:1,1999-07-03T18:00:00Z,27.8903,-94.0367,2.0,77.03699884,27.19301381,-99999.0,'11111222,11111222,99999999' 
TABS,ioos:station:wmo:42046:1,1999-07-03T18:30:00Z,27.8903,-94.0367,2.0,86.18593408,36.07991131,-99999.0,'11111222,11111222,99999999' 
TABS,ioos:station:wmo:42046:1,1999-07-03T19:00:00Z,27.8903,-94.0367,2.0,88.40252754,50.21951812,-99999.0,'11111222,11111222,99999999' 
TABS,ioos:station:wmo:42046:1,1999-07-03T19:30:00Z,27.8903,-94.0367,2.0,89.43273492,30.30148511,-99999.0,'11111222,11111222,99999999' 
TABS,ioos:station:wmo:42046:1,1999-07-03T20:00:00Z,27.8903,-94.0367,2.0,110.9668883,40.80159311,-99999.0,'11111222,11111222,99999999' 
TABS,ioos:station:wmo:42046:1,1999-07-03T20:30:00Z,27.8903,-94.0367,2.0,96.79524422,43.10278413,-99999.0,'11111222,11111222,99999999' 
TABS,ioos:station:wmo:42046:1,1999-07-03T21:00:00Z,27.8903,-94.0367,2.0,98.30565678,41.53564734,-99999.0,'11111222,11111222,99999999' 
TABS,ioos:station:wmo:42046:1,1999-07-03T21:30:00Z,27.8903,-94.0367,2.0,90.17738533,32.3001548,-99999.0,'11111222,11111222,99999999' 
TABS,ioos:station:wmo:42046:1,1999-07-03T22:00:00Z,27.8903,-94.0367,2.0,105.7807164,38.24133889,-99999.0,'11111222,11111222,99999999' 
TABS,ioos:station:wmo:42046:1,1999-07-03T22:30:00Z,27.8903,-94.0367,2.0,113.7923662,34.20716299,-99999.0,'11111222,11111222,99999999' 
TABS,ioos:station:wmo:42046:1,1999-07-03T23:00:00Z,27.8903,-94.0367,2.0,114.7342447,19.59795908,-99999.0,'11111222,11111222,99999999' 
TABS,ioos:station:wmo:42046:1,1999-07-03T23:30:00Z,27.8903,-94.0367,2.0,126.5109707,19.16037578,-99999.0,'11111222,11111222,99999999' 
TABS,ioos:station:wmo:42046:1,1999-07-04T00:00:00Z,27.8903,-94.0367,2.0,126.9454992,15.14001321,-99999.0,'11111222,11111222,99999999' 
TABS,ioos:station:wmo:42046:1,1999-07-04T00:30:00Z,27.8903,-94.0367,2.0,113.5912649,17.24093965,-99999.0,'11111222,11111222,99999999' 
TABS,ioos:station:wmo:42046:1,1999-07-04T01:00:00Z,27.8903,-94.0367,2.0,88.43777874,11.00409015,-99999.0,'11111222,11111222,99999999' 
TABS,ioos:station:wmo:42046:1,1999-07-04T01:30:00Z,27.8903,-94.0367,2.0,120.5912943,18.47078775,-99999.0,'11111222,11111222,99999999' 
TABS,ioos:station:wmo:42046:1,1999-07-04T02:00:00Z,27.8903,-94.0367,2.0,68.36210937,13.01729619,-99999.0,'11111222,11111222,99999999' 
TABS,ioos:station:wmo:42046:1,1999-07-04T02:30:00Z,27.8903,-94.0367,2.0,141.6665391,10.96357606,-99999.0,'11111222,11111222,99999999' 
TABS,ioos:station:wmo:42046:1,1999-07-04T03:00:00Z,27.8903,-94.0367,2.0,90.90937832,12.6015872,-99999.0,'11111222,11111222,99999999' 
TABS,ioos:station:wmo:42046:1,1999-07-04T03:30:00Z,27.8903,-94.0367,2.0,83.01895892,4.936598019,-99999.0,'11133222,11111222,99999999' 
TABS,ioos:station:wmo:42046:1,1999-07-04T04:00:00Z,27.8903,-94.0367,2.0,1.847816404,3.101612484,-99999.0,'11133222,11111222,99999999' 
TABS,ioos:station:wmo:42046:1,1999-07-04T04:30:00Z,27.8903,-94.0367,2.0,298.6108137,5.011985634,-99999.0,'11133222,11111222,99999999' 
TABS,ioos:station:wmo:42046:1,1999-07-04T05:00:00Z,27.8903,-94.0367,2.0,330.7188519,12.26743657,-99999.0,'11111222,11111222,99999999' 
TABS,ioos:station:wmo:42046:1,1999-07-04T05:30:00Z,27.8903,-94.0367,2.0,324.0526924,21.12273657,-99999.0,'11111222,11111222,99999999' 
TABS,ioos:station:wmo:42046:1,1999-07-04T06:00:00Z,27.8903,-94.0367,2.0,341.3977741,21.63007166,-99999.0,'11111222,11111222,99999999' 
TABS,ioos:station:wmo:42046:1,1999-07-04T06:30:00Z,27.8903,-94.0367,2.0,345.6834848,19.81539805,-99999.0,'11111222,11111222,99999999' 
TABS,ioos:station:wmo:42046:1,1999-07-04T07:00:00Z,27.8903,-94.0367,2.0,7.820218169,23.51871595,-99999.0,'11111222,11111222,99999999' 
TABS,ioos:station:wmo:42046:1,1999-07-04T07:30:00Z,27.8903,-94.0367,2.0,341.7714033,17.58237754,-99999.0,'11111222,11111222,99999999' 
TABS,ioos:station:wmo:42046:1,1999-07-04T08:00:00Z,27.8903,-94.0367,2.0,356.6934717,22.53752427,-99999.0,'11111222,11111222,99999999' 
TABS,ioos:station:wmo:42046:1,1999-07-04T08:30:00Z,27.8903,-94.0367,2.0,350.7367665,37.89419481,-99999.0,'11111222,11111222,99999999' 
TABS,ioos:station:wmo:42046:1,1999-07-04T09:00:00Z,27.8903,-94.0367,2.0,1.18139661,19.40412327,-99999.0,'11111222,11111222,99999999' 
TABS,ioos:station:wmo:42046:1,1999-07-04T09:30:00Z,27.8903,-94.0367,2.0,2.477803533,20.81946205,-99999.0,'11111222,11111222,99999999' 
TABS,ioos:station:wmo:42046:1,1999-07-04T10:00:00Z,27.8903,-94.0367,2.0,354.9119622,14.65776245,-99999.0,'11111222,11111222,99999999' 
TABS,ioos:station:wmo:42046:1,1999-07-04T10:30:00Z,27.8903,-94.0367,2.0,2.151148556,21.31501818,-99999.0,'11111222,11111222,99999999' 
TABS,ioos:station:wmo:42046:1,1999-07-04T11:00:00Z,27.8903,-94.0367,2.0,4.916764968,18.66869037,-99999.0,'11111222,11111222,99999999' 
TABS,ioos:station:wmo:42046:1,1999-07-04T11:30:00Z,27.8903,-94.0367,2.0,13.04387235,35.00314272,-99999.0,'11111222,11111222,99999999' 
TABS,ioos:station:wmo:42046:1,1999-07-04T12:00:00Z,27.8903,-94.0367,2.0,9.619915763,47.87316576,-99999.0,'11111222,11111222,99999999' 
TABS,ioos:station:wmo:42046:1,1999-07-04T12:30:00Z,27.8903,-94.0367,2.0,23.22841821,50.71055117,-99999.0,'11111222,11111222,99999999' 
TABS,ioos:station:wmo:42046:1,1999-07-04T13:00:00Z,27.8903,-94.0367,2.0,17.04218348,41.62787528,-99999.0,'11111222,11111222,99999999' 
TABS,ioos:station:wmo:42046:1,1999-07-04T13:30:00Z,27.8903,-94.0367,2.0,30.83797029,39.01602235,-99999.0,'11111222,11111222,99999999' 
TABS,ioos:station:wmo:42046:1,1999-07-04T14:00:00Z,27.8903,-94.0367,2.0,25.57038022,43.78881136,-99999.0,'11111222,11111222,99999999' 
TABS,ioos:station:wmo:42046:1,1999-07-04T14:30:00Z,27.8903,-94.0367,2.0,25.52357527,36.90121949,-99999.0,'11111222,11111222,99999999' 
TABS,ioos:station:wmo:42046:1,1999-07-04T15:00:00Z,27.8903,-94.0367,2.0,42.74553554,26.96163942,-99999.0,'11111222,11111222,99999999' 
TABS,ioos:station:wmo:42046:1,1999-07-04T15:30:00Z,27.8903,-94.0367,2.0,42.28271129,43.25286118,-99999.0,'11111222,11111222,99999999' 
TABS,ioos:station:wmo:42046:1,1999-07-04T16:00:00Z,27.8903,-94.0367,2.0,45.21231035,38.18402807,-99999.0,'11111222,11111222,99999999' 
TABS,ioos:station:wmo:42046:1,1999-07-04T16:30:00Z,27.8903,-94.0367,2.0,64.08937438,35.24272975,-99999.0,'11111222,11111222,99999999' 
TABS,ioos:station:wmo:42046:1,1999-07-04T17:00:00Z,27.8903,-94.0367,2.0,55.58740179,30.78830947,-99999.0,'11111222,11111222,99999999' 
TABS,ioos:station:wmo:42046:1,1999-07-04T17:30:00Z,27.8903,-94.0367,2.0,56.99503525,25.51803284,-99999.0,'11111222,11111222,99999999' 